W6MAF Weather Reports


Display with metric or nautical units.
time (UTC)temp
F
wind
direction
speed
MPH
gust
MPH
rain 1hr
in
rain 24hr
in
rain mn
in
humidity
%
barometer
mb
20260504025755 52 183 15.0 17.0 0.00 0.00 0.00 66
20260504025257 52 180 14.0 16.0 0.00 0.00 0.00 66
20260504024801 52 169 11.0 17.0 0.00 0.00 0.00 66
20260504024259 52 190 13.0 8.0 0.00 0.00 0.00 66
20260504023801 52 188 10.0 11.0 0.00 0.00 0.00 65
20260504023303 52 184 11.0 12.0 0.00 0.00 0.00 65
20260504022902 52 197 13.0 12.0 0.00 0.00 0.00 64
20260504022806 52 197 13.0 12.0 0.00 0.00 0.00 64
20260504022308 53 174 10.0 8.0 0.00 0.00 0.00 64
20260504021810 53 169 15.0 12.0 0.00 0.00 0.00 64
20260504021309 53 190 12.0 10.0 0.00 0.00 0.00 63
20260504020812 53 205 16.0 15.0 0.00 0.00 0.00 62
20260504020314 54 181 15.0 18.0 0.00 0.00 0.00 61
20260504015816 54 165 10.0 13.0 0.00 0.00 0.00 58
20260504015319 55 143 13.0 9.0 0.00 0.00 0.00 56
20260504014821 55 139 12.0 12.0 0.00 0.00 0.00 55
20260504014320 56 163 10.0 13.0 0.00 0.00 0.00 54
20260504013822 56 187 13.0 13.0 0.00 0.00 0.00 52
20260504013325 56 172 9.0 14.0 0.00 0.00 0.00 52
20260504012827 57 179 6.0 0.0 0.00 0.00 0.00 51
20260504012329 57 180 12.0 6.0 0.00 0.00 0.00 51
20260504011832 57 214 5.0 8.0 0.00 0.00 0.00 50
20260504011331 57 180 8.0 7.0 0.00 0.00 0.00 49
20260504010833 57 197 9.0 18.0 0.00 0.00 0.00 48
20260504010335 57 194 18.0 19.0 0.00 0.00 0.00 47
20260504005927 58 188 11.0 13.0 0.00 0.00 0.00 46
20260504005838 58 188 11.0 13.0 0.00 0.00 0.00 46
20260504005428 58 183 8.0 15.0 0.00 0.00 0.00 47
20260504005340 58 183 8.0 15.0 0.00 0.00 0.00 47
20260504004935 58 187 8.0 9.0 0.00 0.00 0.00 47
20260504004842 58 187 8.0 9.0 0.00 0.00 0.00 47
20260504004342 58 191 13.0 13.0 0.00 0.00 0.00 46
20260504003925 59 208 10.0 19.0 0.00 0.00 0.00 46
20260504003844 59 208 10.0 19.0 0.00 0.00 0.00 46
20260504003349 58 184 9.0 8.0 0.00 0.00 0.00 46
20260504002938 59 187 16.0 7.0 0.00 0.00 0.00 45
20260504002848 59 187 16.0 7.0 0.00 0.00 0.00 45
20260504002351 59 177 14.0 11.0 0.00 0.00 0.00 44
20260504001853 59 201 8.0 12.0 0.00 0.00 0.00 44
20260504000854 59 165 16.0 10.0 0.00 0.00 0.00 44
20260504000446 59 179 13.0 14.0 0.00 0.00 0.00 45
20260504000357 59 179 13.0 14.0 0.00 0.00 0.00 45
20260503235402 59 186 18.0 18.0 0.00 0.00 0.00 45
20260503234904 59 194 15.0 11.0 0.00 0.00 0.00 46
20260503234403 59 226 17.0 14.0 0.00 0.00 0.00 45
20260503233906 59 215 20.0 27.0 0.00 0.00 0.00 45
20260503233410 59 203 22.0 19.0 0.00 0.00 0.00 43
20260503233407 59 205 23.0 28.0 0.00 0.00 0.00 45
20260503232910 59 203 22.0 19.0 0.00 0.00 0.00 43
20260503232412 59 169 23.0 13.0 0.00 0.00 0.00 42
20260503231914 60 203 23.0 16.0 0.00 0.00 0.00 42
20260503231654 61 195 19.0 19.0 0.00 0.00 0.00 42
20260503231413 61 195 19.0 19.0 0.00 0.00 0.00 42
20260503230916 60 214 17.0 21.0 0.00 0.00 0.00 43
20260503230418 60 194 21.0 18.0 0.00 0.00 0.00 42
20260503225920 60 188 21.0 23.0 0.00 0.00 0.00 42
20260503225422 61 207 24.0 28.0 0.00 0.00 0.00 39
20260503224925 61 197 22.0 26.0 0.00 0.00 0.00 40
20260503224424 61 191 20.0 26.0 0.00 0.00 0.00 40
20260503223926 61 170 25.0 25.0 0.00 0.00 0.00 38
20260503222931 61 181 27.0 14.0 0.00 0.00 0.00 38
20260503222433 61 205 21.0 24.0 0.00 0.00 0.00 37
20260503221935 62 222 22.0 22.0 0.00 0.00 0.00 35
20260503221434 62 207 22.0 23.0 0.00 0.00 0.00 35
20260503221035 62 197 27.0 26.0 0.00 0.00 0.00 33
20260503220937 62 197 27.0 26.0 0.00 0.00 0.00 33
20260503220604 62 201 25.0 24.0 0.00 0.00 0.00 34
20260503220439 62 201 25.0 24.0 0.00 0.00 0.00 34
20260503215941 62 205 22.0 25.0 0.00 0.00 0.00 34
20260503215607 63 195 28.0 33.0 0.00 0.00 0.00 32
20260503215444 63 195 28.0 33.0 0.00 0.00 0.00 32
20260503215034 63 210 17.0 22.0 0.00 0.00 0.00 29
20260503214946 63 210 17.0 22.0 0.00 0.00 0.00 29
20260503214445 63 200 27.0 28.0 0.00 0.00 0.00 29
20260503213948 64 217 27.0 28.0 0.00 0.00 0.00 26
20260503213450 64 188 25.0 29.0 0.00 0.00 0.00 25
20260503213034 64 207 23.0 24.0 0.00 0.00 0.00 25
20260503212952 64 207 23.0 24.0 0.00 0.00 0.00 25
20260503212454 65 212 25.0 24.0 0.00 0.00 0.00 22
20260503211957 65 222 24.0 28.0 0.00 0.00 0.00 23
20260503211456 65 222 27.0 9.0 0.00 0.00 0.00 23
20260503210500 66 193 26.0 31.0 0.00 0.00 0.00 20
20260503210002 66 253 22.0 15.0 0.00 0.00 0.00 21
20260503205505 66 200 22.0 24.0 0.00 0.00 0.00 22
20260503205007 66 210 15.0 14.0 0.00 0.00 0.00 32
20260503204506 66 232 16.0 6.0 0.00 0.00 0.00 33
20260503204009 66 205 19.0 14.0 0.00 0.00 0.00 34
20260503203511 66 222 14.0 22.0 0.00 0.00 0.00 36
20260503203013 65 250 18.0 10.0 0.00 0.00 0.00 36
20260503202515 65 232 19.0 23.0 0.00 0.00 0.00 35
20260503202018 65 246 22.0 19.0 0.00 0.00 0.00 34
20260503201517 65 194 20.0 19.0 0.00 0.00 0.00 30
20260503201019 65 219 20.0 22.0 0.00 0.00 0.00 31
20260503200521 64 235 19.0 19.0 0.00 0.00 0.00 32
20260503200024 64 210 18.0 25.0 0.00 0.00 0.00 33
20260503195028 63 174 17.0 16.0 0.00 0.00 0.00 32
20260503194527 63 193 19.0 22.0 0.00 0.00 0.00 32
20260503194030 63 224 20.0 13.0 0.00 0.00 0.00 31
20260503193604 63 172 15.0 16.0 0.00 0.00 0.00 31
20260503193532 63 172 15.0 16.0 0.00 0.00 0.00 31
20260503193035 64 167 13.0 14.0 0.00 0.00 0.00 32
20260503192613 64 194 12.0 16.0 0.00 0.00 0.00 32
20260503192537 64 194 12.0 16.0 0.00 0.00 0.00 32
20260503192039 63 190 16.0 16.0 0.00 0.00 0.00 31
20260503191040 64 200 17.0 15.0 0.00 0.00 0.00 32
20260503190543 64 232 9.0 5.0 0.00 0.00 0.00 33
20260503190045 63 159 10.0 15.0 0.00 0.00 0.00 33
20260503185547 63 194 13.0 10.0 0.00 0.00 0.00 35
20260503185050 62 183 17.0 21.0 0.00 0.00 0.00 35
20260503184549 62 186 16.0 15.0 0.00 0.00 0.00 42
20260503184051 62 221 10.0 9.0 0.00 0.00 0.00 47
20260503183553 61 229 11.0 17.0 0.00 0.00 0.00 50
20260503183056 61 232 13.0 20.0 0.00 0.00 0.00 52
20260503182558 61 224 14.0 11.0 0.00 0.00 0.00 54
20260503181559 60 245 18.0 14.0 0.00 0.00 0.00 59
20260503181102 59 224 20.0 24.0 0.00 0.00 0.00 62
20260503180604 59 208 16.0 14.0 0.00 0.00 0.00 65
20260503180106 59 224 18.0 21.0 0.00 0.00 0.00 68
20260503175609 58 225 16.0 19.0 0.00 0.00 0.00 71
20260503175111 57 222 19.0 22.0 0.00 0.00 0.00 74
20260503174610 57 229 15.0 16.0 0.00 0.00 0.00 76
20260503173615 57 253 19.0 10.0 0.00 0.00 0.00 80
20260503173117 56 246 17.0 11.0 0.00 0.00 0.00 82
20260503172619 56 231 16.0 20.0 0.00 0.00 0.00 84
20260503172122 56 225 20.0 20.0 0.00 0.00 0.00 86
20260503171621 56 211 16.0 16.0 0.00 0.00 0.00 88
20260503171123 56 231 18.0 16.0 0.00 0.00 0.00 90
20260503170128 56 233 14.0 16.0 0.00 0.00 0.00 92
20260503160149 52 193 15.0 17.0 0.00 0.00 0.00 100
20260503150708 50 200 16.0 14.0 0.00 0.00 0.00 100
20260503150210 50 210 15.0 9.0 0.00 0.00 0.00 100
20260503140231 49 211 13.0 11.0 0.00 0.00 0.00 100
20260503131248 49 219 12.0 12.0 0.00 0.00 0.00 100
20260503130750 49 208 12.0 14.0 0.00 0.00 0.00 100
20260503130252 50 239 10.0 8.0 0.00 0.00 0.00 100
20260503110335 51 221 10.0 11.0 0.00 0.00 0.00 95
20260503090418 56 193 8.0 8.0 0.00 0.00 0.00 48
20260503081433 58 191 0.0 0.0 0.00 0.00 0.00 32
20260503080936 58 190 1.0 4.0 0.00 0.00 0.00 30
20260503080438 59 176 0.0 0.0 0.00 0.00 0.00 29
20260503072453 59 180 6.0 9.0 0.00 0.00 0.00 20
20260503071952 59 174 7.0 7.0 0.00 0.00 0.00 20
20260503071454 59 212 0.0 0.0 0.00 0.00 0.00 21
20260503070957 59 212 0.0 0.0 0.00 0.00 0.00 25
20260503070459 60 212 0.0 0.0 0.00 0.00 0.00 25
20260503055024 62 156 8.0 9.0 0.00 0.00 0.00 16
20260503054526 62 134 8.0 8.0 0.00 0.00 0.00 16
20260503054028 62 155 9.0 8.0 0.00 0.00 0.00 16
20260503053531 62 145 11.0 12.0 0.00 0.00 0.00 15
20260503053033 63 149 11.0 12.0 0.00 0.00 0.00 15
20260503052606 63 163 10.0 8.0 0.00 0.00 0.00 14
20260503052535 63 163 10.0 8.0 0.00 0.00 0.00 14
20260503052035 63 170 14.0 16.0 0.00 0.00 0.00
20260503051039 63 155 12.0 13.0 0.00 0.00 0.00 14
20260503050542 63 177 13.0 12.0 0.00 0.00 0.00 14
20260503050043 63 155 12.0 11.0 0.00 0.00 0.00 14
20260503045546 64 181 11.0 11.0 0.00 0.00 0.00 14
20260503045045 64 179 11.0 13.0 0.00 0.00 0.00 13
20260503044547 64 183 12.0 13.0 0.00 0.00 0.00 12
20260503044049 64 183 10.0 12.0 0.00 0.00 0.00 11
20260503043552 64 170 11.0 12.0 0.00 0.00 0.00 11
20260503043054 65 184 12.0 9.0 0.00 0.00 0.00 10
20260503042556 65 194 11.0 10.0 0.00 0.00 0.00 9
20260503042055 65 156 10.0 13.0 0.00 0.00 0.00 9
20260503041557 65 179 10.0 8.0 0.00 0.00 0.00 8
20260503041100 65 191 11.0 10.0 0.00 0.00 0.00 8
20260503040602 65 197 13.0 13.0 0.00 0.00 0.00 7
20260503040104 65 181 11.0 10.0 0.00 0.00 0.00 7
20260503035607 65 183 10.0 10.0 0.00 0.00 0.00 7
20260503035106 66 204 9.0 10.0 0.00 0.00 0.00 7
20260503034608 66 188 11.0 12.0 0.00 0.00 0.00 7
20260503034110 66 218 11.0 12.0 0.00 0.00 0.00 7
20260503033612 66 210 12.0 9.0 0.00 0.00 0.00 8
20260503033115 66 204 12.0 11.0 0.00 0.00 0.00 8
20260503032617 67 200 12.0 14.0 0.00 0.00 0.00 7
20260503032116 67 210 14.0 12.0 0.00 0.00 0.00 7
20260503031619 67 198 14.0 10.0 0.00 0.00 0.00 7
20260503031121 67 198 12.0 10.0 0.00 0.00 0.00 7
20260503030623 68 197 13.0 9.0 0.00 0.00 0.00 6
20260503030125 68 217 14.0 9.0 0.00 0.00 0.00 7